Location: Central Falls
(41.8900°N, 71.3929°W)
Time: 07:41:12
(UTC+00:00)

Altair - Pass Details

Date: 08 December 2023
Orbit: 1501 x 1682 km, 47.2° (Epoch: 29 February)

Event Time Altitude Azimuth Distance (km) Brightness Sun altitude
Rises 20:04:19 0° 292° (WNW) 4,674 10.4 9.6°
Reaches altitude 10° 20:08:17 10° 277° (W) 3,671 10.2 9.1°
Maximum altitude 20:14:37 21° 233° (SW) 2,867 11.0 8.2°
Drops below altitude 10° 20:20:57 10° 188° (S) 3,643 10.3 7.3°
Sets 20:24:54 0° 174° (S) 4,629 10.5 6.7°
